Location: Gu�tanj
(46.5431°N, 14.9692°E)
Time: 23:48:49
(UTC+00:00)

X-37B - Pass Details

Date: 01 October 2021
Orbit: 385 x 389 km, 45.0° (Epoch: 17 October)

Event Time Altitude Azimuth Distance (km) Brightness Sun altitude
Exits shadow 02:43:46 27° 112° (ESE) 777 2.5 -23.6°
Drops below altitude 10° 02:45:24 10° 104° (ESE) 1,413 4.1 -23.3°
Sets 02:47:29 0° 101° (E) 2,267 5.4 -23.0°
